• In Hungary
  • List of Countries
  • For 7 days
  • Water Temperature
  • Satellite Maps
  • Weather Map
  • News
  • Weather Widgets
  • user-avatar
    Login

    Hourly Weather Denisovka

    Today, 24 September, Monday

    Time Temperature Precipitation Wind Pressure Humidity
    00:00 +14°C° 0 mm 4 mps 748 mmHg 94%
    01:00 +14°C° 0 mm 5 mps 747 mmHg 94%
    02:00 +14°C° 0 mm 5 mps 747 mmHg 94%
    03:00 +14°C° 0 mm 5 mps 747 mmHg 95%
    04:00 +14°C° 0 mm 5 mps 747 mmHg 95%
    05:00 +14°C° 0 mm 5 mps 747 mmHg 95%
    06:00 +14°C° 0 mm 5 mps 747 mmHg 94%
    07:00 +14°C° 0 mm 5 mps 747 mmHg 94%
    08:00 +15°C° 0 mm 5 mps 747 mmHg 93%
    09:00 +15°C° 0 mm 5 mps 747 mmHg 92%
    10:00 +15°C° 0 mm 5 mps 747 mmHg 91%
    11:00 +15°C° 0.1 mm 5 mps 747 mmHg 90%
    12:00 +15°C° 0.1 mm 5 mps 747 mmHg 90%
    13:00 +15°C° 0.1 mm 4 mps 747 mmHg 89%
    14:00 +15°C° 0.2 mm 4 mps 747 mmHg 89%
    15:00 +14°C° 0.2 mm 4 mps 747 mmHg 89%
    16:00 +14°C° 0.2 mm 3 mps 747 mmHg 89%
    17:00 +14°C° 0.4 mm 4 mps 746 mmHg 89%
    18:00 +13°C° 0.4 mm 4 mps 746 mmHg 90%
    19:00 +13°C° 0.4 mm 5 mps 746 mmHg 91%
    20:00 +12°C° 1.3 mm 5 mps 746 mmHg 91%
    21:00 +10°C° 1.3 mm 5 mps 746 mmHg 91%
    22:00 +8°C° 1.3 mm 6 mps 746 mmHg 91%
    23:00 +8°C° 0.7 mm 5 mps 746 mmHg 91%

    Tomorrow, 25 September, Tuesday

    Time Temperature Precipitation Wind Pressure Humidity
    00:00 +7°C° 0.7 mm 5 mps 747 mmHg 91%
    01:00 +7°C° 0.7 mm 4 mps 747 mmHg 91%
    02:00 +7°C° 0 mm 4 mps 748 mmHg 91%
    03:00 +8°C° 0 mm 3 mps 749 mmHg 91%
    04:00 +8°C° 0 mm 3 mps 750 mmHg 91%
    05:00 +8°C° 0 mm 3 mps 750 mmHg 92%
    06:00 +7°C° 0 mm 3 mps 751 mmHg 93%
    07:00 +7°C° 0 mm 3 mps 751 mmHg 94%
    08:00 +8°C° 0 mm 3 mps 751 mmHg 91%
    09:00 +8°C° 0 mm 3 mps 751 mmHg 88%
    10:00 +9°C° 0 mm 3 mps 751 mmHg 85%
    11:00 +8°C° 0 mm 4 mps 752 mmHg 84%
    12:00 +8°C° 0 mm 4 mps 752 mmHg 83%
    13:00 +10°C° 0 mm 4 mps 752 mmHg 81%
    14:00 +10°C° 0 mm 4 mps 752 mmHg 82%
    15:00 +8°C° 0 mm 4 mps 752 mmHg 82%
    16:00 +9°C° 0 mm 3 mps 752 mmHg 82%
    17:00 +9°C° 0 mm 3 mps 752 mmHg 86%
    18:00 +8°C° 0 mm 2 mps 752 mmHg 89%
    19:00 +8°C° 0 mm 2 mps 752 mmHg 92%
    20:00 +8°C° 0 mm 2 mps 751 mmHg 93%
    21:00 +7°C° 0 mm 2 mps 751 mmHg 94%
    22:00 +7°C° 0 mm 2 mps 751 mmHg 95%
    23:00 +7°C° 0.2 mm 2 mps 750 mmHg 95%

    Day after tomorrow, 26 September, Wednesday

    Time Temperature Precipitation Wind Pressure Humidity
    00:00 +7°C° 0.2 mm 2 mps 750 mmHg 95%
    01:00 +7°C° 0.2 mm 2 mps 750 mmHg 96%
    02:00 +7°C° 0.4 mm 2 mps 749 mmHg 96%
    03:00 +7°C° 0.4 mm 2 mps 749 mmHg 95%
    04:00 +7°C° 0.4 mm 2 mps 748 mmHg 95%
    05:00 +7°C° 0.3 mm 3 mps 748 mmHg 95%
    06:00 +7°C° 0.3 mm 3 mps 747 mmHg 95%
    07:00 +5°C° 0.3 mm 3 mps 746 mmHg 95%
    08:00 +7°C° 0.2 mm 3 mps 745 mmHg 93%
    09:00 +7°C° 0.2 mm 3 mps 744 mmHg 92%
    10:00 +7°C° 0.2 mm 4 mps 743 mmHg 90%
    11:00 +8°C° 0.6 mm 3 mps 742 mmHg 91%
    12:00 +8°C° 0.6 mm 3 mps 741 mmHg 92%
    13:00 +8°C° 0.6 mm 3 mps 740 mmHg 93%
    14:00 +8°C° 0.5 mm 3 mps 740 mmHg 91%
    15:00 +9°C° 0.5 mm 3 mps 739 mmHg 90%
    16:00 +8°C° 0.5 mm 4 mps 739 mmHg 88%
    17:00 +8°C° 0.3 mm 4 mps 739 mmHg 89%
    18:00 +7°C° 0.3 mm 4 mps 739 mmHg 91%
    19:00 +7°C° 0.3 mm 4 mps 740 mmHg 92%
    20:00 +6°C° 0.2 mm 5 mps 740 mmHg 91%
    21:00 +5°C° 0.2 mm 6 mps 741 mmHg 90%
    22:00 +5°C° 0.2 mm 7 mps 742 mmHg 88%
    23:00 +4°C° 0.1 mm 7 mps 743 mmHg 86%

    27 September, Thursday

    Time Temperature Precipitation Wind Pressure Humidity
    00:00 +3°C° 0.1 mm 6 mps 744 mmHg 84%
    01:00 +2°C° 0.1 mm 6 mps 745 mmHg 82%
    02:00 +1°C° 0 mm 6 mps 745 mmHg 84%
    03:00 +1°C° 0 mm 5 mps 746 mmHg 86%
    04:00 0°C° 0 mm 4 mps 747 mmHg 88%
    05:00 0°C° 0 mm 5 mps 747 mmHg 89%
    06:00 0°C° 0 mm 5 mps 747 mmHg 90%
    07:00 0°C° 0 mm 5 mps 747 mmHg 91%
    08:00 +1°C° 0 mm 6 mps 747 mmHg 89%
    09:00 +2°C° 0 mm 6 mps 747 mmHg 87%
    10:00 +2°C° 0 mm 7 mps 747 mmHg 85%
    11:00 +3°C° 0 mm 7 mps 746 mmHg 83%
    12:00 +3°C° 0 mm 7 mps 746 mmHg 82%
    13:00 +4°C° 0 mm 7 mps 746 mmHg 80%
    14:00 +4°C° 0 mm 7 mps 746 mmHg 78%
    15:00 +5°C° 0 mm 7 mps 746 mmHg 77%
    16:00 +7°C° 0 mm 6 mps 746 mmHg 75%
    17:00 +5°C° 0 mm 6 mps 746 mmHg 75%
    18:00 +5°C° 0 mm 6 mps 745 mmHg 75%
    19:00 +4°C° 0 mm 6 mps 745 mmHg 75%
    20:00 +4°C° 0 mm 6 mps 745 mmHg 76%
    21:00 +3°C° 0 mm 6 mps 745 mmHg 76%
    22:00 +3°C° 0 mm 5 mps 745 mmHg 76%
    23:00 +2°C° 0 mm 5 mps 745 mmHg 77%

    28 September, Friday

    Time Temperature Precipitation Wind Pressure Humidity
    00:00 +2°C° 0 mm 5 mps 744 mmHg 77%
    01:00 +1°C° 0 mm 5 mps 744 mmHg 78%
    02:00 +1°C° 0 mm 5 mps 744 mmHg 79%
    03:00 +1°C° 0 mm 5 mps 743 mmHg 80%
    04:00 +1°C° 0 mm 5 mps 743 mmHg 80%
    05:00 +1°C° 0 mm 5 mps 743 mmHg 80%
    06:00 +1°C° 0 mm 5 mps 742 mmHg 80%
    07:00 +1°C° 0 mm 5 mps 742 mmHg 80%
    08:00 +2°C° 0.1 mm 6 mps 742 mmHg 79%
    09:00 +3°C° 0.1 mm 6 mps 741 mmHg 77%
    10:00 +3°C° 0.1 mm 6 mps 741 mmHg 76%
    11:00 +3°C° 0.2 mm 6 mps 741 mmHg 76%
    12:00 +4°C° 0.2 mm 6 mps 741 mmHg 77%
    13:00 +4°C° 0.2 mm 6 mps 741 mmHg 77%
    14:00 +5°C° 0 mm 5 mps 741 mmHg 77%
    15:00 +5°C° 0 mm 5 mps 741 mmHg 78%
    16:00 +5°C° 0 mm 5 mps 741 mmHg 78%
    17:00 +5°C° 0 mm 4 mps 741 mmHg 81%
    18:00 +4°C° 0 mm 4 mps 741 mmHg 84%
    19:00 +3°C° 0 mm 4 mps 741 mmHg 87%
    20:00 +3°C° 0 mm 4 mps 741 mmHg 89%
    21:00 +3°C° 0 mm 4 mps 741 mmHg 90%
    22:00 +3°C° 0 mm 4 mps 741 mmHg 92%
    23:00 +2°C° 0 mm 3 mps 741 mmHg 93%

    29 September, Saturday

    Time Temperature Precipitation Wind Pressure Humidity
    00:00 +2°C° 0 mm 3 mps 741 mmHg 94%
    01:00 +1°C° 0 mm 3 mps 740 mmHg 94%
    02:00 +1°C° 0 mm 3 mps 740 mmHg 95%
    03:00 +1°C° 0 mm 3 mps 740 mmHg 96%
    04:00 0°C° 0 mm 3 mps 740 mmHg 96%
    05:00 0°C° 0 mm 3 mps 740 mmHg 96%
    06:00 0°C° 0 mm 3 mps 740 mmHg 96%
    07:00 0°C° 0 mm 3 mps 740 mmHg 96%
    08:00 +1°C° 0 mm 3 mps 740 mmHg 92%
    09:00 +2°C° 0 mm 3 mps 739 mmHg 87%
    10:00 +3°C° 0 mm 3 mps 739 mmHg 83%
    11:00 +3°C° 0 mm 3 mps 740 mmHg 79%
    12:00 +4°C° 0 mm 3 mps 740 mmHg 74%
    13:00 +5°C° 0 mm 3 mps 740 mmHg 70%
    14:00 +5°C° 0 mm 3 mps 740 mmHg 72%
    15:00 +4°C° 0 mm 3 mps 740 mmHg 73%
    16:00 +4°C° 0 mm 3 mps 740 mmHg 75%
    17:00 +4°C° 0 mm 2 mps 740 mmHg 80%
    18:00 +4°C° 0 mm 2 mps 741 mmHg 84%
    19:00 +3°C° 0 mm 2 mps 741 mmHg 89%
    20:00 +3°C° 0 mm 2 mps 741 mmHg 91%
    21:00 +2°C° 0 mm 3 mps 741 mmHg 92%
    22:00 +2°C° 0 mm 3 mps 741 mmHg 94%
    23:00 +2°C° 0.2 mm 3 mps 741 mmHg 93%
    Show more

    3.3.7123123